TimeCDT,TemperatureF,Dew PointF,Humidity,Sea Level PressureIn,VisibilityMPH,Wind Direction,Wind SpeedMPH,Gust SpeedMPH,PrecipitationIn,Events,Conditions,WindDirDegrees,DateUTC
12:53 AM,48.0,26.1,42,29.99,10.0,South,9.2,-,N/A,,Clear,190,2014-03-14 05:53:00
1:53 AM,46.9,26.1,44,29.98,10.0,SSW,6.9,-,N/A,,Clear,200,2014-03-14 06:53:00
2:53 AM,45.0,26.1,48,29.98,10.0,SSW,6.9,-,N/A,,Clear,200,2014-03-14 07:53:00
3:53 AM,48.0,27.0,44,29.96,10.0,SSW,11.5,-,N/A,,Clear,200,2014-03-14 08:53:00
4:53 AM,48.0,28.0,46,29.95,10.0,SSW,12.7,-,N/A,,Clear,200,2014-03-14 09:53:00
5:53 AM,51.1,28.0,41,29.94,10.0,SSW,16.1,23.0,N/A,,Clear,210,2014-03-14 10:53:00
6:53 AM,50.0,28.9,44,29.94,10.0,SSW,16.1,24.2,N/A,,Clear,200,2014-03-14 11:53:00
7:53 AM,51.1,28.9,43,29.94,10.0,SSW,12.7,21.9,N/A,,Clear,210,2014-03-14 12:53:00
8:53 AM,52.0,28.9,41,29.95,10.0,SSW,18.4,24.2,N/A,,Clear,210,2014-03-14 13:53:00
9:53 AM,52.0,30.0,43,29.96,10.0,SW,17.3,24.2,N/A,,Clear,220,2014-03-14 14:53:00
10:53 AM,53.1,32.0,45,29.98,10.0,SSW,17.3,26.5,N/A,,Overcast,210,2014-03-14 15:53:00
11:53 AM,55.9,34.0,44,29.99,10.0,SW,10.4,-,N/A,,Clear,220,2014-03-14 16:53:00
12:53 PM,61.0,34.0,36,29.98,10.0,SW,15.0,21.9,N/A,,Clear,220,2014-03-14 17:53:00
1:53 PM,64.9,34.0,32,29.97,10.0,West,13.8,19.6,N/A,,Clear,260,2014-03-14 18:53:00
2:53 PM,64.0,34.0,33,29.95,10.0,WSW,6.9,17.3,N/A,,Clear,240,2014-03-14 19:53:00
3:53 PM,66.0,34.0,30,29.92,10.0,WSW,11.5,-,N/A,,Clear,240,2014-03-14 20:53:00
4:53 PM,66.9,34.0,30,29.94,10.0,West,12.7,-,N/A,,Clear,270,2014-03-14 21:53:00
5:53 PM,64.9,33.1,31,29.95,10.0,West,8.1,-,N/A,,Clear,260,2014-03-14 22:53:00
6:53 PM,62.1,35.1,37,29.96,10.0,West,5.8,-,N/A,,Clear,270,2014-03-14 23:53:00
7:53 PM,59.0,33.1,38,29.97,10.0,Calm,Calm,-,N/A,,Clear,0,2014-03-15 00:53:00
8:53 PM,53.1,34.0,48,29.99,10.0,SW,3.5,-,N/A,,Clear,220,2014-03-15 01:53:00
9:53 PM,48.9,34.0,56,30.00,10.0,Calm,Calm,-,N/A,,Clear,0,2014-03-15 02:53:00
10:53 PM,48.0,34.0,58,30.01,10.0,SSW,5.8,-,N/A,,Clear,210,2014-03-15 03:53:00
11:53 PM,45.0,35.1,68,30.01,10.0,Calm,Calm,-,N/A,,Clear,0,2014-03-15 04:53:00